2024-149AU (60510 NORAD) Tracking and Keplerian Element Data

This shows tracking and keplerian element data for the satellite.

Feedback or suggestion? Click here.




ElementValue
Catalog60510
Name2024-149AU
Epoch Orbit864
Epoch Day286.7463934
Epoch Year2024
RAAN1.4354
Inclination97.4345
Eccentricity0.0004302
Argument of Perigee312.1388
Mean Anonmoly47.9481
Mean Motion15.20196464
Decay Rate0.00020254
L11 60510U 24149AU 24286.74639340 .00020254 00000+0 93614-3 0 9998
L22 60510 97.4345 1.4354 0004302 312.1388 47.9481 15.20196464 8647



Live tracking and technical data element details for 2024-149AU (NORAD 60510). 2024-149AU can be tracked NOW for your location showing map with azimuth and elevation plus other details from your city location.







IsCatalogInMostPopularTable: catalog: 60510, numindb: 4
Update: records affected: 1



GetName: 60510 2024-149AU

Hit Count: updated at: Tue, 03 Dec 2024 02:24:31 GMT